Location: Denia
(38.8500°N, 0.1170°E)
Time: 01:41:21
(UTC+01:00)

Envisat - Pass Details

Date: 23 January 2020
Orbit: 764 x 766 km, 98.1° (Epoch: 25 February)

Event Time Altitude Azimuth Distance (km) Brightness Sun altitude
Rises 19:40:03 0° 193° (SSW) 3,218 6.6 -17.5°
Reaches altitude 10° 19:42:37 10° 205° (SSW) 2,296 5.9 -18.0°
Maximum altitude 19:46:59 29° 264° (W) 1,381 5.1 -18.8°
Drops below altitude 10° 19:51:23 10° 324° (NW) 2,310 5.8 -19.7°
Sets 19:54:00 0° 336° (NNW) 3,240 6.4 -20.2°
